Location: Budapest
(47.4979°N, 19.0402°E)
Time: 21:47:14
(UTC+02:00)

ISS - Visible Passes

Search period start: 02 October 2022 00:00
Search period end: 12 October 2022 00:00
Orbit: 416 x 419 km, 51.6° (Epoch: 02 October)

Date Brightness Start Highest point End Pass type
(mag) Time Alt. Az. Time Alt. Az. Time Alt. Az.
02 Oct -2.7 19:45:18 10° WNW 19:48:28 39° SW 19:50:15 21° SSE visible
03 Oct -3.3 18:57:07 10° WNW 19:00:28 60° SSW 19:03:46 10° SE visible
03 Oct -0.9 20:35:38 10° WSW 20:36:38 11° SW 20:37:16 11° SW visible
04 Oct -1.2 19:46:25 10° W 19:48:44 17° SW 19:51:04 10° S visible
05 Oct -1.8 18:57:52 10° W 19:00:46 27° SW 19:03:39 10° SSE visible
07 Oct -0.6 18:59:33 10° WSW 19:00:46 12° SW 19:01:59 10° SSW visible
